{"data":{"norad_id":67527,"intl_designator":"2026-013F","name":"HULIANWANG DIGUI-151","alt_names":[],"object_type":"PAYLOAD","status":"ACTIVE","operator":null,"country":"PRC","launch_date":"2026-01-19","launch_site_code":"WSC","launch_vehicle":null,"mission":null,"orbit_class":"UNKNOWN","rcs_meters":null,"size_class":null,"mass_kg":null,"dimensions":null,"purposes":[],"wikipedia_slug":null,"has_3d_model":false,"image_url":null,"decayed_at":null,"tle_current":{"epoch":"2026-05-25T04:42:04.178880Z","epoch_age_seconds":58913,"freshness":"FRESH","line1":"1 67527U 26013F   26145.19588170 -.00000094  00000+0  65372-4 0  9996","line2":"2 67527  50.0090  78.0651 0000918  25.3960 334.6957 13.29327920 16993","mean_motion":13.2932792,"eccentricity":9.18e-5,"inclination_deg":50.009,"raan_deg":78.0651,"arg_perigee_deg":25.396,"mean_anomaly_deg":334.6957,"bstar":6.5372e-5,"rev_number":1699,"period_min":108.32541604934,"perigee_km":1148.6083050779,"apogee_km":1149.9903423869,"semimajor_km":7527.4363237324,"source":"CELESTRAK","updated_at":"2026-05-25T13:38:07.050722Z"}}}